Current Version              Previous Version:    01  02  03  04  05  06  07  08  09  10  11  12  13  14  15  16  17  18  19  20  21  22  23  24  25  26  27  28  29  30  
   31  32  33  34  35  36  37  38  39  40  41  42  43  44  45  46  47  48  49  50  51  52  53  54  55  56  57  58  59  60  

[Printable]
317
ASUS44 KEWX 301102
RWRTX
SOUTH TEXAS REGIONAL WEATHER ROUNDUP
NATIONAL WEATHER SERVICE AUSTIN/SAN ANTONIO TX
600 AM CDT WED JUL 30 2014

NOTE: "FAIR" INDICATED FEW OR NO CLOUDS BELOW 12,000 FEET WITH NO
SIGNIFICANT WEATHER AND/OR OBSTRUCTIONS TO VISIBILITY.

* - THESE STATIONS ARE NOT NWS OR FAA STATIONS...AND ARE NOT SUBJECT
    TO NWS AND FAA QUALITY CONTROL.

TXZ171-172-183>190-301200-
TEXAS HILL COUNTRY AND EDWARDS PLATEAU

CITY           SKY/WX    TMP DP  RH WIND       PRES   REMARKS
JUNCTION       PTCLDY    75  60  59 S6        30.05F
*LLANO         PTCLDY    73  66  78 CALM      30.07S
BURNET         PTCLDY    74  66  76 SE6       30.07F
*HORSESHOE BAY PTCLDY    73  64  72 CALM      30.05S
*KERRVILLE     CLEAR     72  67  84 SE5       30.08R
*FREDERICKSBRG PTCLDY    70  57  63 CALM      30.06F
*ROCKSPRINGS   PTCLDY    73  59  60 SE13G18   30.09S
*BOERNE STAGE  CLEAR     72  66  83 S5        30.07F
*CASTROVILLE   CLEAR     73  67  82 E3        30.05S
HONDO          CLEAR     70  65  84 NE6       30.05F
*UVALDE        CLEAR     73  65  77 E3        30.04S
DEL RIO        CLEAR     79  66  64 E7        29.98F
LAUGHLIN AFB   NOT AVBL
CARRIZO SPRGS  CLEAR     73  66  78 E3        29.99S
$$

TXZ173-191>194-202-209-217>225-228-301200-
CENTRAL AND SOUTH CENTRAL TEXAS

CITY           SKY/WX    TMP DP  RH WIND       PRES   REMARKS
GEORGETOWN     CLEAR     73  72  94 SE5       30.05F
AUSTIN/BERGSTM PTCLDY    74  70  87 SE5       30.04R
AUSTIN/MABRY   CLEAR     76  70  82 S3        30.05R
*AUSTIN/EXEC   PTCLDY    72  70  94 CALM      30.05S
*LAGO VISTA    CLEAR     76  67  74 S3        30.06F
SAN MARCOS     CLEAR     75  68  78 S6        30.06S
NEW BRAUNFELS  PTCLDY    74  72  93 S8        30.03S
RANDOLPH AFB   MOCLDY    75  72  88 S9        30.05F
PT SAN ANTONIO PTCLDY    75  72  88 SE6       30.03S
SAN ANTONIO    PTCLDY    76  72  87 SE8       30.05S
STINSON FIELD  CLOUDY    75  73  93 SE5       30.03S
*PLEASANTON    CLEAR     73  71  92 E3        30.03F
*LA GRANGE     PTCLDY    75  73  94 CALM      30.03S
*GIDDINGS      CLEAR     72  70  93 CALM      30.08S
*GONZALES      MOCLDY    77  74  91 SE7       30.03F
$$

TXZ163>164-176>182-195>201-210>213-226-227-235-301200-
SOUTHEAST TEXAS

CITY           SKY/WX    TMP DP  RH WIND       PRES   REMARKS
COLLEGE STN    CLEAR     74  72  93 S3        30.05S
*BRYAN         CLEAR    N/A N/A N/A SE3       30.04S
*CALDWELL      CLEAR     72  72 100 CALM      30.07S
*CROCKETT      CLEAR     75  73  94 E5        30.09R
*BRENHAM       CLEAR     73  71  94 CALM      30.05S FOG
HUNTSVILLE     CLEAR     74  66  76 S5        30.06R
CONROE         PTCLDY    69  68  96 CALM      30.06S
HOUSTON BUSH   PTCLDY    73  71  93 CALM      30.05R
HOUSTON HOBBY  PTCLDY    76  73  91 CALM      30.04R
*HOUSTON SW AP CLEAR     71  71 100 CALM      30.05R FOG
PEARLAND       CLEAR     76  71  85 CALM      30.05R
HOUSTON HOOKS  CLEAR     73  73 100 CALM      30.05R
ELLINGTON FLD  NOT AVBL
SUGAR LAND     CLEAR     74  73  97 CALM      30.04S FOG
*HOUSTON EXEC  MOCLDY    72  72 100 CALM      30.06R FOG
*CLEVELAND MUN PTCLDY    69  68  98 CALM      30.06S FOG
*WHARTON       MOCLDY    73  72  97 CALM      30.05R
$$

TXZ214>216-236>238-301200-
THE UPPER TEXAS COAST

CITY           SKY/WX    TMP DP  RH WIND       PRES   REMARKS
*ORANGE        CLEAR     72  72 100 NE3       30.07R
PORT ARTHUR    CLEAR     73  71  93 CALM      30.04R
GALVESTON      PTCLDY    82  75  79 CALM      30.04S
ANGLETON       CLOUDY    75  74  96 CALM      30.04R
*BAY CITY      CLEAR     75  75 100 CALM      30.04R
PALACIOS       MOCLDY    79  76  90 E5        30.03S
$$

TXZ229>234-239>247-301200-
TEXAS COASTAL BEND AND RIO GRANDE PLAINS

CITY           SKY/WX    TMP DP  RH WIND       PRES   REMARKS
VICTORIA       PTCLDY    77  74  90 CALM      30.04S
*BEEVILLE      CLEAR     73  73 100 SE5       30.03S FOG
ROCKPORT       PTCLDY    78  75  90 SW3       30.02S
*PORT ARANSAS  CLEAR     77  76  97 S3        30.02S
*PORT LAVACA   NOT AVBL
*INGLESIDE     PTCLDY    82  74  77 S7        30.02S
CORPUS CHRISTI MOCLDY    75  72  90 SE5       30.02S
CORPUS NAS     MOCLDY    79  76  90 S6        30.02S
*ROBSTOWN      NOT AVBL
ALICE          CLEAR     75  73  93 S7        30.01F
KINGSVILLE NAS CLEAR     74  74 100 S6        30.01F
COTULLA        CLEAR     75  69  81 SE7       30.01S
*FAITH RANCH   CLEAR     81  68  65 S9G16     30.00S
LAREDO         CLEAR     78  73  84 SE12      30.02F
$$

TXZ248>255-301200-
DEEP SOUTH TEXAS

CITY           SKY/WX    TMP DP  RH WIND       PRES   REMARKS
BROWNSVILLE    CLEAR     76  74  93 S6        30.02S
PORT ISABEL    CLEAR     79  74  84 S9        30.00F
*SOUTH PADRE     N/A     79  77  94 S8        30.01F
HARLINGEN      CLEAR     75  74  96 S8        30.00F
*HEBBRONVILLE  MOCLDY    76  73  88 SE6       30.03S
MCALLEN        CLEAR     76  74  93 SE5       30.01F
*WESLACO       NOT AVBL
FALFURRIAS     CLEAR     56  32  40 S3        30.01S
EDINBURG       CLEAR     76  73  90 CALM      30.01S FOG
*ZAPATA        NOT AVBL
$$

TXZ213>215-236>238-242>244-246-247-251-254-255-301200-
CMAN STATIONS

STATION/POSITION TIME  TEMP    WIND        PRES    WAVE
                       AIR SEA DIR/SP/G            HT/PER
                 (UTC) (F)     (DEG/KT/KT) (MB)    (FT/S)
SABINE PASS      1000   79 86   70/  5/  6 1017.2
SEA RIM ST PARK  1000   77      70/  4/  4 1017.7
NORTH JETTY/GLS  1000   84 90  150/  4/  7   N/A
EAGLE POINT      1000   79 86  280/  4/  5 1017.0
MORGANS POINT    1000   82 91  120/  5/  7 1016.9
MISSION/ARANSAS  1000   80     200/  7     1017.0
PORT O`CONNOR    1000          190/  5/  6   N/A
PORT ARANSAS     1000   79 79  200/  7/  8 1017.1
MALAQUITE BEACH  1000   78 76  150/  5/  6 1015.9
BAFFIN BAY       1000   80 79  170/  8/  9 1016.3
PORT ISABEL      1000   79 83  170/  8/ 11 1016.6
$$

GMZ080-GMZ150>470-301200-
OFFSHORE BUOY REPORTS

STATION/POSITION TIME  TEMP    WIND        PRES    WAVE
                       AIR SEA DIR/SP/G            HT/PER
                 (UTC) (F)     (DEG/KT/KT) (MB)    (FT/S)
90 E PT ARANSAS  1100   83 84  190/  6/  6 1017.2    1/ 6
35 NE PT MANSFLD 1000   83 84  180/ 14/ 17 1016.2    2/ 3
200 E PT ISABEL  1000   83 86  180/  2/  4 1016.9    1
$$